When you browse on this site, cookies collect data to enhance your experience and personalize the content and advertising you see.
Visit our Privacy Policy to learn more. By continuing to use the site, you agree to this use of cookies and data.
  • Em Portugal
  • Lista de países
  • Para 7 dias
  • Temperatura da água
  • Mapa do tempo
  • Widgets de tempo
  • user-avatar
    Iniciar Sessão

    Previsão horária em Bregenz

    Hoje, 24 Fevereiro, Segunda-feira

    Tempo Temperatura Precipitação Vento Pressão Humidade
    00:00 +4°C° 0 mm 3 m/s 650 mmHg 83%
    01:00 +4°C° 0 mm 3 m/s 650 mmHg 83%
    02:00 +4°C° 0.1 mm 2 m/s 650 mmHg 85%
    03:00 +4°C° 0.1 mm 2 m/s 650 mmHg 86%
    04:00 +4°C° 0.1 mm 2 m/s 650 mmHg 87%
    05:00 +4°C° 0.2 mm 2 m/s 650 mmHg 87%
    06:00 +5°C° 0.2 mm 1 m/s 650 mmHg 87%
    07:00 +5°C° 0.2 mm 1 m/s 650 mmHg 87%
    08:00 +5°C° 0 mm 1 m/s 650 mmHg 84%
    09:00 +6°C° 0 mm 1 m/s 650 mmHg 82%
    10:00 +7°C° 0 mm 1 m/s 650 mmHg 80%
    11:00 +8°C° 0 mm 1 m/s 649 mmHg 77%
    12:00 +8°C° 0 mm 1 m/s 649 mmHg 73%
    13:00 +9°C° 0 mm 1 m/s 649 mmHg 69%
    14:00 +8°C° 0 mm 2 m/s 648 mmHg 70%
    15:00 +8°C° 0 mm 2 m/s 648 mmHg 71%
    16:00 +8°C° 0 mm 2 m/s 647 mmHg 71%
    17:00 +7°C° 0 mm 2 m/s 646 mmHg 75%
    18:00 +5°C° 0 mm 2 m/s 645 mmHg 79%
    19:00 +4°C° 0 mm 2 m/s 645 mmHg 83%
    20:00 +4°C° 0 mm 2 m/s 645 mmHg 81%
    21:00 +4°C° 0 mm 2 m/s 644 mmHg 78%
    22:00 +3°C° 0 mm 2 m/s 644 mmHg 76%
    23:00 +3°C° 0 mm 2 m/s 643 mmHg 75%

    Amanhã, 25 Fevereiro, Terça-feira

    Tempo Temperatura Precipitação Vento Pressão Humidade
    00:00 +3°C° 0 mm 2 m/s 643 mmHg 75%
    01:00 +2°C° 0 mm 2 m/s 643 mmHg 74%
    02:00 +2°C° 0 mm 2 m/s 642 mmHg 74%
    03:00 +2°C° 0 mm 2 m/s 642 mmHg 75%
    04:00 +1°C° 0 mm 2 m/s 641 mmHg 75%
    05:00 +1°C° 0 mm 2 m/s 641 mmHg 75%
    06:00 +1°C° 0 mm 2 m/s 640 mmHg 75%
    07:00 +1°C° 0 mm 2 m/s 640 mmHg 75%
    08:00 +2°C° 0 mm 2 m/s 640 mmHg 72%
    09:00 +3°C° 0 mm 2 m/s 640 mmHg 68%
    10:00 +5°C° 0 mm 2 m/s 640 mmHg 65%
    11:00 +4°C° 0 mm 3 m/s 640 mmHg 64%
    12:00 +4°C° 0 mm 3 m/s 640 mmHg 62%
    13:00 +4°C° 0 mm 4 m/s 639 mmHg 61%
    14:00 +3°C° 0.3 mm 4 m/s 639 mmHg 69%
    15:00 +1°C° 0.3 mm 4 m/s 638 mmHg 77%
    16:00 +1°C° 0.3 mm 3 m/s 637 mmHg 84%
    17:00 +1°C° 0.6 mm 3 m/s 637 mmHg 88%
    18:00 +2°C° 0.6 mm 2 m/s 637 mmHg 91%
    19:00 +1°C° 0.6 mm 2 m/s 637 mmHg 94%
    20:00 +1°C° 0.4 mm 2 m/s 636 mmHg 94%
    21:00 +1°C° 0.4 mm 2 m/s 636 mmHg 93%
    22:00 -1°C° 0.4 mm 3 m/s 636 mmHg 93%
    23:00 -1°C° 0.9 mm 3 m/s 635 mmHg 93%

    Depois de amanhã, 26 Fevereiro, Quarta-feira

    Tempo Temperatura Precipitação Vento Pressão Humidade
    00:00 -2°C° 0.9 mm 3 m/s 635 mmHg 93%
    01:00 -2°C° 0.9 mm 3 m/s 634 mmHg 92%
    02:00 -4°C° 0.1 mm 3 m/s 634 mmHg 91%
    03:00 -4°C° 0.1 mm 3 m/s 633 mmHg 90%
    04:00 -5°C° 0.1 mm 3 m/s 632 mmHg 89%
    05:00 -5°C° 0.8 mm 3 m/s 632 mmHg 90%
    06:00 -7°C° 0.8 mm 4 m/s 632 mmHg 91%
    07:00 -7°C° 0.8 mm 4 m/s 631 mmHg 92%
    08:00 -7°C° 0.7 mm 5 m/s 632 mmHg 88%
    09:00 -7°C° 0.7 mm 5 m/s 632 mmHg 84%
    10:00 -7°C° 0.7 mm 5 m/s 632 mmHg 80%
    11:00 -7°C° 0.5 mm 5 m/s 632 mmHg 77%
    12:00 -8°C° 0.5 mm 6 m/s 633 mmHg 74%
    13:00 -8°C° 0.5 mm 6 m/s 633 mmHg 71%
    14:00 -8°C° 0.3 mm 6 m/s 633 mmHg 76%
    15:00 -8°C° 0.3 mm 6 m/s 633 mmHg 80%
    16:00 -8°C° 0.3 mm 6 m/s 633 mmHg 84%
    17:00 -8°C° 0.8 mm 5 m/s 634 mmHg 87%
    18:00 -8°C° 0.8 mm 4 m/s 635 mmHg 90%
    19:00 -7°C° 0.8 mm 3 m/s 636 mmHg 93%
    20:00 -8°C° 1.1 mm 4 m/s 636 mmHg 92%
    21:00 -9°C° 1.1 mm 4 m/s 637 mmHg 92%
    22:00 -9°C° 1.1 mm 4 m/s 637 mmHg 92%
    23:00 -8°C° 0.4 mm 3 m/s 638 mmHg 92%

    27 Fevereiro, Quinta-feira

    Tempo Temperatura Precipitação Vento Pressão Humidade
    00:00 -9°C° 0.4 mm 3 m/s 638 mmHg 92%
    01:00 -8°C° 0.4 mm 2 m/s 638 mmHg 93%
    02:00 -9°C° 0.7 mm 3 m/s 639 mmHg 93%
    03:00 -9°C° 0.7 mm 3 m/s 639 mmHg 94%
    04:00 -9°C° 0.7 mm 3 m/s 640 mmHg 94%
    05:00 -9°C° 0.5 mm 3 m/s 640 mmHg 94%
    06:00 -9°C° 0.5 mm 3 m/s 640 mmHg 93%
    07:00 -9°C° 0.5 mm 3 m/s 641 mmHg 92%
    08:00 -8°C° 0.1 mm 3 m/s 641 mmHg 86%
    09:00 -7°C° 0.1 mm 3 m/s 641 mmHg 80%
    10:00 -6°C° 0.1 mm 2 m/s 642 mmHg 74%
    11:00 -5°C° 0 mm 2 m/s 641 mmHg 70%
    12:00 -4°C° 0 mm 2 m/s 641 mmHg 65%
    13:00 -3°C° 0 mm 2 m/s 641 mmHg 61%
    14:00 -3°C° 0 mm 2 m/s 640 mmHg 64%
    15:00 -3°C° 0 mm 2 m/s 639 mmHg 67%
    16:00 -3°C° 0 mm 2 m/s 638 mmHg 70%
    17:00 -4°C° 0.8 mm 2 m/s 638 mmHg 78%
    18:00 -6°C° 0.8 mm 3 m/s 637 mmHg 85%
    19:00 -6°C° 0.8 mm 3 m/s 637 mmHg 93%
    20:00 -6°C° 1.3 mm 3 m/s 637 mmHg 93%
    21:00 -7°C° 1.3 mm 4 m/s 637 mmHg 93%
    22:00 -7°C° 1.3 mm 4 m/s 637 mmHg 94%
    23:00 -7°C° 1.4 mm 4 m/s 637 mmHg 94%

    28 Fevereiro, Sexta-feira

    Tempo Temperatura Precipitação Vento Pressão Humidade
    00:00 -5°C° 1.4 mm 4 m/s 637 mmHg 95%
    01:00 -5°C° 1.4 mm 3 m/s 637 mmHg 95%
    02:00 -4°C° 1 mm 3 m/s 637 mmHg 95%
    03:00 -4°C° 1 mm 3 m/s 637 mmHg 95%
    04:00 -2°C° 1 mm 3 m/s 637 mmHg 95%
    05:00 -2°C° 0.5 mm 3 m/s 637 mmHg 95%
    06:00 -3°C° 0.5 mm 4 m/s 638 mmHg 94%
    07:00 -3°C° 0.5 mm 4 m/s 638 mmHg 94%
    08:00 -2°C° 0.5 mm 3 m/s 639 mmHg 95%
    09:00 -2°C° 0.5 mm 3 m/s 639 mmHg 95%
    10:00 -2°C° 0.5 mm 3 m/s 639 mmHg 96%
    11:00 -1°C° 0.2 mm 3 m/s 639 mmHg 95%
    12:00 -1°C° 0.2 mm 3 m/s 639 mmHg 94%
    13:00 -1°C° 0.2 mm 3 m/s 639 mmHg 93%
    14:00 -1°C° 0 mm 2 m/s 639 mmHg 94%
    15:00 +1°C° 0 mm 2 m/s 639 mmHg 95%
    16:00 +2°C° 0 mm 1 m/s 639 mmHg 95%
    17:00 -1°C° 0.2 mm 2 m/s 639 mmHg 94%
    18:00 -1°C° 0.2 mm 2 m/s 639 mmHg 93%
    19:00 -1°C° 0.2 mm 2 m/s 638 mmHg 91%
    20:00 -1°C° 0.1 mm 2 m/s 638 mmHg 89%
    21:00 -1°C° 0.1 mm 2 m/s 637 mmHg 87%
    22:00 -1°C° 0.1 mm 3 m/s 637 mmHg 85%
    23:00 -1°C° 0.1 mm 3 m/s 637 mmHg 84%

    29 Fevereiro, Sábado

    Tempo Temperatura Precipitação Vento Pressão Humidade
    00:00 -2°C° 0.1 mm 3 m/s 636 mmHg 82%
    01:00 -2°C° 0.1 mm 3 m/s 636 mmHg 80%
    02:00 -2°C° 0 mm 3 m/s 635 mmHg 81%
    03:00 -2°C° 0 mm 3 m/s 635 mmHg 82%
    04:00 -1°C° 0 mm 3 m/s 635 mmHg 82%
    05:00 -2°C° 0 mm 3 m/s 634 mmHg 82%
    06:00 -2°C° 0 mm 3 m/s 634 mmHg 82%
    07:00 -2°C° 0 mm 2 m/s 634 mmHg 82%
    08:00 -1°C° 0.2 mm 3 m/s 634 mmHg 85%
    09:00 -1°C° 0.2 mm 3 m/s 634 mmHg 88%
    10:00 0°C° 0.2 mm 3 m/s 634 mmHg 91%
    11:00 -1°C° 0.9 mm 4 m/s 634 mmHg 92%
    12:00 -1°C° 0.9 mm 5 m/s 634 mmHg 93%
    13:00 -1°C° 0.9 mm 5 m/s 635 mmHg 95%
    14:00 -2°C° 1.2 mm 5 m/s 635 mmHg 94%
    15:00 -2°C° 1.2 mm 4 m/s 635 mmHg 93%
    16:00 -3°C° 1.2 mm 4 m/s 635 mmHg 93%
    17:00 -2°C° 0.4 mm 3 m/s 635 mmHg 93%
    18:00 -2°C° 0.4 mm 2 m/s 636 mmHg 94%
    19:00 0°C° 0.4 mm 1 m/s 636 mmHg 94%
    20:00 -3°C° 0.1 mm 2 m/s 635 mmHg 93%
    21:00 -3°C° 0.1 mm 2 m/s 635 mmHg 92%
    22:00 -3°C° 0.1 mm 2 m/s 634 mmHg 91%
    23:00 -4°C° 0 mm 2 m/s 633 mmHg 88%
    Mostrar mais